ITY1025 VVNB-VHHX

Flight info

Callsign ITY1025
Flight time 1h 39m
Altitude 35100
Route NAKHA3A NAKHA R474 GYA A599 POU
Aircraft B738/M-SDE2E3FGHIRWXY/LB1

Departure

Time 2026-04-29 21:56
Airport Noi Bai International Airport (VVNB)

Arrival

Time 2026-04-29 23:36
Airport Hong Kong International Airport Kai Tak (VHHX)
Time Latitude Longitude Altitude Speed Heading
2026-04-29 21:36 21.21749 105.79821 44 ft 0 kts 200°
2026-04-29 21:46 21.21758 105.79825 46 ft 2 kts 200°
2026-04-29 21:46 21.21771 105.79830 46 ft 2 kts 200°
2026-04-29 21:46 21.21784 105.79835 47 ft 2 kts 200°
2026-04-29 21:47 21.21797 105.79840 43 ft 2 kts 200°
2026-04-29 21:47 21.21810 105.79845 44 ft 2 kts 200°
2026-04-29 21:47 21.21823 105.79851 45 ft 2 kts 202°
2026-04-29 21:47 21.21834 105.79856 45 ft 2 kts 209°
2026-04-29 21:48 21.21840 105.79860 45 ft 1 kts 226°
2026-04-29 21:48 21.21845 105.79864 45 ft 1 kts 266°
2026-04-29 21:48 21.21845 105.79870 43 ft 1 kts 282°
2026-04-29 21:48 21.21843 105.79876 43 ft 0 kts 285°
2026-04-29 21:50 21.21844 105.79873 43 ft 2 kts 285°
2026-04-29 21:50 21.21857 105.79822 48 ft 11 kts 288°
2026-04-29 21:50 21.21883 105.79737 46 ft 12 kts 287°
2026-04-29 21:51 21.21908 105.79650 48 ft 12 kts 287°
2026-04-29 21:51 21.21933 105.79567 48 ft 11 kts 288°
2026-04-29 21:51 21.21979 105.79406 48 ft 11 kts 287°
2026-04-29 21:52 21.22004 105.79323 48 ft 13 kts 287°
2026-04-29 21:52 21.22032 105.79228 48 ft 13 kts 287°
2026-04-29 21:52 21.22073 105.79148 48 ft 12 kts 334°
2026-04-29 21:52 21.22151 105.79118 48 ft 12 kts 309°
2026-04-29 21:53 21.22181 105.79035 48 ft 12 kts 288°
2026-04-29 21:53 21.22205 105.78952 49 ft 11 kts 290°
2026-04-29 21:53 21.22228 105.78871 47 ft 11 kts 287°
2026-04-29 21:53 21.22251 105.78793 49 ft 11 kts 288°
2026-04-29 21:54 21.22274 105.78715 49 ft 11 kts 288°
2026-04-29 21:54 21.22298 105.78636 46 ft 11 kts 295°
2026-04-29 21:54 21.22360 105.78611 49 ft 9 kts 15°
2026-04-29 21:54 21.22415 105.78628 49 ft 8 kts 16°
2026-04-29 21:55 21.22456 105.78664 46 ft 8 kts 75°
2026-04-29 21:55 21.22452 105.78700 49 ft 0 kts 105°
2026-04-29 21:55 21.22443 105.78734 49 ft 24 kts 106°
2026-04-29 21:55 21.22326 105.79136 50 ft 85 kts 108°
2026-04-29 21:56 21.22099 105.79925 46 ft 140 kts 107°
2026-04-29 21:56 21.21780 105.81068 516 ft 162 kts 106°
2026-04-29 21:56 21.21479 105.82156 1618 ft 152 kts 101°
2026-04-29 21:56 21.21208 105.83294 2275 ft 167 kts 100°
2026-04-29 21:57 21.20887 105.84607 2567 ft 196 kts 101°
2026-04-29 21:57 21.20499 105.86101 2773 ft 220 kts 103°
2026-04-29 21:57 21.20051 105.87744 3053 ft 240 kts 104°
2026-04-29 21:57 21.19548 105.89535 3323 ft 260 kts 105°
2026-04-29 21:58 21.19013 105.91395 3943 ft 267 kts 105°
2026-04-29 21:58 21.18457 105.93315 4739 ft 271 kts 106°
2026-04-29 21:58 21.17888 105.95285 5431 ft 279 kts 105°
2026-04-29 21:58 21.17713 105.97349 6173 ft 282 kts 81°
2026-04-29 21:59 21.18335 105.99338 6907 ft 284 kts 62°
2026-04-29 21:59 21.19528 106.01034 7479 ft 288 kts 35°
2026-04-29 21:59 21.21214 106.02201 8198 ft 290 kts 27°
2026-04-29 21:59 21.22962 106.03271 8868 ft 295 kts 26°
2026-04-29 22:00 21.24768 106.04355 9553 ft 300 kts 26°
2026-04-29 22:00 21.26604 106.05462 10222 ft 305 kts 26°
2026-04-29 22:00 21.28508 106.06617 10499 ft 326 kts 26°
2026-04-29 22:00 21.30544 106.07861 10659 ft 348 kts 26°
2026-04-29 22:01 21.32703 106.09192 10819 ft 368 kts 27°
2026-04-29 22:01 21.34968 106.10597 11024 ft 383 kts 27°
2026-04-29 22:01 21.37296 106.12049 11479 ft 389 kts 27°
2026-04-29 22:01 21.39647 106.13520 12057 ft 392 kts 27°
2026-04-29 22:02 21.42017 106.15005 12662 ft 395 kts 27°
2026-04-29 22:02 21.44341 106.16461 13618 ft 386 kts 27°
2026-04-29 22:02 21.46632 106.17899 14578 ft 378 kts 27°
2026-04-29 22:02 21.48880 106.19309 15561 ft 369 kts 26°
2026-04-29 22:03 21.51069 106.20681 16587 ft 360 kts 26°
2026-04-29 22:03 21.53235 106.22037 17384 ft 360 kts 26°
2026-04-29 22:03 21.55415 106.23400 18003 ft 365 kts 26°
2026-04-29 22:03 21.57630 106.24786 18555 ft 371 kts 26°
2026-04-29 22:04 21.59848 106.26173 19094 ft 374 kts 26°
2026-04-29 22:04 21.62104 106.27588 19698 ft 376 kts 26°
2026-04-29 22:04 21.64373 106.29011 20311 ft 379 kts 26°
2026-04-29 22:04 21.66664 106.30449 20874 ft 382 kts 26°
2026-04-29 22:05 21.68967 106.31895 21431 ft 385 kts 26°
2026-04-29 22:05 21.71281 106.33392 21940 ft 389 kts 27°
2026-04-29 22:05 21.76001 106.36334 23093 ft 394 kts 26°
2026-04-29 22:06 21.78390 106.37815 23625 ft 397 kts 26°
2026-04-29 22:06 21.80790 106.39309 24065 ft 400 kts 26°
2026-04-29 22:06 21.83176 106.40800 24474 ft 403 kts 26°
2026-04-29 22:06 21.85616 106.42328 24886 ft 406 kts 26°
2026-04-29 22:07 21.88069 106.43870 25314 ft 409 kts 26°
2026-04-29 22:07 21.90539 106.45427 25746 ft 411 kts 26°
2026-04-29 22:07 21.93017 106.46983 26164 ft 414 kts 26°
2026-04-29 22:07 21.95484 106.48533 26571 ft 417 kts 27°
2026-04-29 22:08 21.97962 106.50200 26975 ft 422 kts 33°
2026-04-29 22:08 22.00299 106.52153 27365 ft 426 kts 37°
2026-04-29 22:08 22.02574 106.54222 27761 ft 429 kts 38°
2026-04-29 22:08 22.04853 106.56319 28142 ft 432 kts 38°
2026-04-29 22:09 22.07160 106.58409 28507 ft 435 kts 37°
2026-04-29 22:09 22.09505 106.60494 28882 ft 437 kts 37°
2026-04-29 22:09 22.11882 106.62581 29257 ft 440 kts 36°
2026-04-29 22:09 22.14231 106.64636 29618 ft 443 kts 36°
2026-04-29 22:10 22.16636 106.66740 29974 ft 445 kts 37°
2026-04-29 22:10 22.18979 106.68949 30287 ft 450 kts 41°
2026-04-29 22:10 22.21229 106.71311 30610 ft 451 kts 43°
2026-04-29 22:10 22.23450 106.73717 31003 ft 451 kts 43°
2026-04-29 22:11 22.25663 106.76117 31357 ft 452 kts 43°
2026-04-29 22:11 22.27898 106.78516 31619 ft 454 kts 43°
2026-04-29 22:11 22.30159 106.80920 31856 ft 458 kts 43°
2026-04-29 22:11 22.32433 106.83343 32109 ft 461 kts 44°
2026-04-29 22:12 22.34442 106.86066 32349 ft 466 kts 57°
2026-04-29 22:12 22.35926 106.89145 32623 ft 469 kts 68°
2026-04-29 22:12 22.36887 106.92520 32878 ft 471 kts 78°
2026-04-29 22:12 22.37504 106.96003 33137 ft 473 kts 80°
2026-04-29 22:13 22.38075 106.99514 33364 ft 475 kts 80°
2026-04-29 22:13 22.38650 107.03044 33583 ft 478 kts 80°
2026-04-29 22:13 22.39249 107.06592 33810 ft 481 kts 79°
2026-04-29 22:13 22.39868 107.10149 34014 ft 483 kts 79°
2026-04-29 22:14 22.40496 107.13686 34216 ft 485 kts 79°
2026-04-29 22:14 22.41138 107.17272 34428 ft 487 kts 79°
2026-04-29 22:14 22.41788 107.20915 34647 ft 488 kts 79°
2026-04-29 22:14 22.42422 107.24484 34844 ft 490 kts 79°
2026-04-29 22:15 22.43070 107.28121 35036 ft 491 kts 79°
2026-04-29 22:15 22.43726 107.31755 35201 ft 494 kts 79°
2026-04-29 22:15 22.44385 107.35379 35185 ft 499 kts 79°
2026-04-29 22:16 22.45734 107.42806 35205 ft 507 kts 78°
2026-04-29 22:16 22.47098 107.50359 35209 ft 512 kts 78°
2026-04-29 22:17 22.48456 107.57905 35197 ft 515 kts 78°
2026-04-29 22:17 22.49820 107.65512 35188 ft 515 kts 78°
2026-04-29 22:18 22.51183 107.73132 35187 ft 514 kts 78°
2026-04-29 22:18 22.52535 107.80717 35188 ft 513 kts 78°
2026-04-29 22:19 22.53874 107.88245 35192 ft 511 kts 78°
2026-04-29 22:19 22.55216 107.95813 35194 ft 510 kts 78°
2026-04-29 22:20 22.56542 108.03314 35173 ft 510 kts 78°
2026-04-29 22:20 22.57872 108.10856 35173 ft 509 kts 78°
2026-04-29 22:21 22.59095 108.18398 35177 ft 508 kts 81°
2026-04-29 22:21 22.59960 108.25993 35175 ft 508 kts 83°
2026-04-29 22:22 22.60756 108.33586 35175 ft 508 kts 83°
2026-04-29 22:22 22.61587 108.41141 35180 ft 508 kts 83°
2026-04-29 22:23 22.62445 108.48725 35193 ft 507 kts 83°
2026-04-29 22:23 22.63306 108.56314 35184 ft 507 kts 83°
2026-04-29 22:24 22.64161 108.63907 35199 ft 507 kts 83°
2026-04-29 22:24 22.65003 108.71440 35183 ft 506 kts 83°
2026-04-29 22:25 22.65848 108.79024 35183 ft 505 kts 83°
2026-04-29 22:25 22.66680 108.86527 35181 ft 504 kts 83°
2026-04-29 22:26 22.67513 108.94066 35186 ft 503 kts 83°
2026-04-29 22:26 22.68341 109.01600 35184 ft 503 kts 83°
2026-04-29 22:27 22.69160 109.09077 35186 ft 502 kts 83°
2026-04-29 22:27 22.69994 109.16590 35184 ft 502 kts 83°
2026-04-29 22:28 22.70867 109.24093 35187 ft 502 kts 83°
2026-04-29 22:28 22.71745 109.31613 35186 ft 503 kts 83°
2026-04-29 22:29 22.72468 109.37868 35183 ft 503 kts 83°
2026-04-29 22:29 22.73470 109.46619 35185 ft 504 kts 83°
2026-04-29 22:30 22.74329 109.54164 35183 ft 504 kts 83°
2026-04-29 22:30 22.75186 109.61719 35181 ft 505 kts 83°
2026-04-29 22:31 22.76035 109.69235 35189 ft 506 kts 83°
2026-04-29 22:31 22.76888 109.76816 35187 ft 507 kts 83°
2026-04-29 22:32 22.77740 109.84413 35180 ft 508 kts 84°
2026-04-29 22:32 22.78586 109.92011 35201 ft 508 kts 83°
2026-04-29 22:33 22.79431 109.99624 35188 ft 508 kts 83°
2026-04-29 22:33 22.80267 110.07184 35178 ft 508 kts 83°
2026-04-29 22:34 22.81105 110.14794 35177 ft 507 kts 84°
2026-04-29 22:34 22.81798 110.21112 35182 ft 507 kts 84°
2026-04-29 22:35 22.82623 110.28676 35185 ft 507 kts 84°
2026-04-29 22:35 22.83450 110.36283 35183 ft 507 kts 84°
2026-04-29 22:36 22.84272 110.43886 35176 ft 507 kts 84°
2026-04-29 22:36 22.85091 110.51487 35178 ft 508 kts 84°
2026-04-29 22:37 22.85928 110.59117 35188 ft 509 kts 84°
2026-04-29 22:37 22.86828 110.66702 35191 ft 511 kts 84°
2026-04-29 22:38 22.87741 110.74374 35195 ft 512 kts 84°
2026-04-29 22:38 22.88637 110.82053 35183 ft 514 kts 84°
2026-04-29 22:39 22.89525 110.89709 35187 ft 514 kts 84°
2026-04-29 22:39 22.90416 110.97416 35188 ft 515 kts 84°
2026-04-29 22:40 22.91304 111.05124 35195 ft 515 kts 84°
2026-04-29 22:40 22.92187 111.12826 35205 ft 514 kts 84°
2026-04-29 22:41 22.93066 111.20526 35196 ft 514 kts 84°
2026-04-29 22:41 22.93941 111.28226 35184 ft 514 kts 84°
2026-04-29 22:42 22.94807 111.35873 35179 ft 513 kts 84°
2026-04-29 22:42 22.95673 111.43566 35184 ft 513 kts 84°
2026-04-29 22:43 22.96534 111.51248 35182 ft 513 kts 84°
2026-04-29 22:43 22.97395 111.58942 35179 ft 512 kts 84°
2026-04-29 22:44 22.98240 111.66620 35179 ft 512 kts 84°
2026-04-29 22:44 22.99075 111.74299 35182 ft 512 kts 84°
2026-04-29 22:45 22.99907 111.81971 35169 ft 512 kts 84°
2026-04-29 22:45 23.00732 111.89596 35179 ft 511 kts 84°
2026-04-29 22:46 23.01558 111.97254 35175 ft 510 kts 84°
2026-04-29 22:46 23.02379 112.04919 35172 ft 510 kts 84°
2026-04-29 22:47 23.03195 112.12563 35185 ft 509 kts 84°
2026-04-29 22:47 23.04007 112.20208 35185 ft 509 kts 84°
2026-04-29 22:48 23.04810 112.27805 35190 ft 509 kts 84°
2026-04-29 22:48 23.05615 112.35457 35181 ft 509 kts 84°
2026-04-29 22:49 23.06418 112.43115 35179 ft 509 kts 84°
2026-04-29 22:49 23.06982 112.50743 35161 ft 508 kts 94°
2026-04-29 22:50 23.06469 112.58403 35180 ft 508 kts 97°
2026-04-29 22:50 23.05870 112.66010 35169 ft 509 kts 96°
2026-04-29 22:51 23.05321 112.73679 35178 ft 509 kts 96°
2026-04-29 22:51 23.04542 112.85209 35177 ft 510 kts 96°
2026-04-29 22:52 23.04021 112.92852 35181 ft 511 kts 96°
2026-04-29 22:52 23.03490 113.00545 35174 ft 511 kts 96°
2026-04-29 22:53 23.02954 113.08255 35175 ft 511 kts 96°
2026-04-29 22:53 23.02260 113.15929 35149 ft 508 kts 108°
2026-04-29 22:54 23.00984 113.19456 35194 ft 500 kts 123°
2026-04-29 22:54 22.98985 113.22501 35183 ft 491 kts 138°
2026-04-29 22:54 22.94085 113.27531 35159 ft 488 kts 142°
2026-04-29 22:55 22.89065 113.32515 35158 ft 489 kts 141°
2026-04-29 22:55 22.84087 113.37542 35148 ft 489 kts 141°
2026-04-29 22:56 22.79126 113.42610 35148 ft 490 kts 141°
2026-04-29 22:56 22.74194 113.47656 35153 ft 490 kts 141°
2026-04-29 22:57 22.69237 113.52717 35148 ft 490 kts 141°
2026-04-29 22:57 22.64265 113.57785 35148 ft 490 kts 141°
2026-04-29 22:58 22.59293 113.62847 35143 ft 490 kts 141°
2026-04-29 22:58 22.54319 113.67906 35139 ft 490 kts 141°
2026-04-29 22:59 22.49376 113.72930 35136 ft 490 kts 141°
2026-04-29 22:59 22.44396 113.77987 35142 ft 490 kts 141°
2026-04-29 23:00 22.39113 113.82503 35138 ft 477 kts 162°
2026-04-29 23:00 22.35974 113.83490 35153 ft 465 kts 177°
2026-04-29 23:00 22.32816 113.83594 35164 ft 457 kts 189°
2026-04-29 23:01 22.29709 113.82999 35146 ft 450 kts 202°
2026-04-29 23:01 22.26856 113.81680 35158 ft 444 kts 211°
2026-04-29 23:01 22.21400 113.78508 35138 ft 445 kts 212°
2026-04-29 23:02 22.16000 113.75302 35119 ft 446 kts 212°
2026-04-29 23:02 22.10521 113.72111 35122 ft 448 kts 212°
2026-04-29 23:03 22.05017 113.68946 35119 ft 448 kts 211°
2026-04-29 23:03 21.99508 113.65791 35119 ft 449 kts 211°
2026-04-29 23:04 21.93989 113.62634 35108 ft 449 kts 211°
2026-04-29 23:04 21.88499 113.59493 35119 ft 449 kts 211°
2026-04-29 23:05 21.82980 113.56339 35114 ft 449 kts 211°
2026-04-29 23:05 21.77448 113.53179 34742 ft 451 kts 211°
2026-04-29 23:06 21.74686 113.51603 34203 ft 447 kts 211°
2026-04-29 23:06 21.71940 113.50037 33486 ft 447 kts 211°
2026-04-29 23:06 21.69193 113.48470 32738 ft 448 kts 211°
2026-04-29 23:06 21.66431 113.46894 31993 ft 449 kts 211°
2026-04-29 23:07 21.63660 113.45315 31167 ft 453 kts 210°
2026-04-29 23:07 21.60861 113.43720 30373 ft 455 kts 210°
2026-04-29 23:07 21.58088 113.42142 29507 ft 457 kts 210°
2026-04-29 23:07 21.55265 113.40535 28600 ft 458 kts 210°
2026-04-29 23:08 21.52440 113.38929 27713 ft 458 kts 210°
2026-04-29 23:08 21.49618 113.37326 26864 ft 458 kts 210°
2026-04-29 23:08 21.46803 113.35726 26034 ft 458 kts 210°
2026-04-29 23:08 21.43989 113.34128 25226 ft 457 kts 210°
2026-04-29 23:09 21.41218 113.32557 24448 ft 455 kts 209°
2026-04-29 23:09 21.38243 113.31392 23658 ft 460 kts 192°
2026-04-29 23:09 21.35024 113.31313 22790 ft 465 kts 176°
2026-04-29 23:09 21.31865 113.32084 22031 ft 466 kts 163°
2026-04-29 23:10 21.28944 113.33585 21345 ft 467 kts 150°
2026-04-29 23:10 21.26434 113.35779 20653 ft 467 kts 136°
2026-04-29 23:10 21.24513 113.38588 19955 ft 468 kts 120°
2026-04-29 23:10 21.23332 113.41824 19221 ft 464 kts 105°
2026-04-29 23:11 21.22961 113.45229 18338 ft 456 kts 89°
2026-04-29 23:11 21.23306 113.48580 17230 ft 450 kts 77°
2026-04-29 23:11 21.24299 113.51684 16191 ft 443 kts 62°
2026-04-29 23:11 21.25831 113.54489 15614 ft 425 kts 56°
2026-04-29 23:12 21.27340 113.57119 15333 ft 403 kts 56°
2026-04-29 23:12 21.28799 113.59599 15107 ft 381 kts 49°
2026-04-29 23:12 21.30664 113.61484 14890 ft 362 kts 30°
2026-04-29 23:12 21.32879 113.62700 14618 ft 355 kts 18°
2026-04-29 23:13 21.35141 113.63668 14337 ft 354 kts 17°
2026-04-29 23:13 21.37450 113.64634 14038 ft 358 kts 17°
2026-04-29 23:13 21.39768 113.65627 13736 ft 359 kts 18°
2026-04-29 23:13 21.42074 113.66636 13409 ft 355 kts 18°
2026-04-29 23:14 21.44330 113.67671 13100 ft 352 kts 24°
2026-04-29 23:14 21.46238 113.69295 12899 ft 351 kts 46°
2026-04-29 23:14 21.47752 113.71309 12763 ft 343 kts 49°
2026-04-29 23:14 21.49194 113.73341 12607 ft 340 kts 50°
2026-04-29 23:15 21.50592 113.75337 12468 ft 336 kts 50°
2026-04-29 23:15 21.51999 113.77341 12323 ft 334 kts 50°
2026-04-29 23:15 21.53399 113.79325 12186 ft 333 kts 50°
2026-04-29 23:15 21.54798 113.81298 12033 ft 331 kts 50°
2026-04-29 23:16 21.56196 113.83261 11896 ft 330 kts 50°
2026-04-29 23:16 21.57597 113.85224 11756 ft 330 kts 50°
2026-04-29 23:16 21.58999 113.87185 11612 ft 330 kts 50°
2026-04-29 23:16 21.60385 113.89124 11478 ft 330 kts 50°
2026-04-29 23:17 21.61785 113.91080 11341 ft 330 kts 50°
2026-04-29 23:17 21.63185 113.93038 11199 ft 330 kts 50°
2026-04-29 23:17 21.64582 113.94993 11043 ft 329 kts 50°
2026-04-29 23:17 21.65979 113.96946 10900 ft 328 kts 50°
2026-04-29 23:18 21.67369 113.98892 10768 ft 328 kts 50°
2026-04-29 23:18 21.68758 114.00836 10627 ft 327 kts 50°
2026-04-29 23:18 21.70124 114.02749 10486 ft 326 kts 50°
2026-04-29 23:18 21.71505 114.04684 10303 ft 325 kts 50°
2026-04-29 23:19 21.72869 114.06596 10157 ft 317 kts 50°
2026-04-29 23:19 21.74199 114.08461 10001 ft 310 kts 50°
2026-04-29 23:19 21.75483 114.10263 9865 ft 303 kts 50°
2026-04-29 23:19 21.76756 114.12049 9726 ft 298 kts 50°
2026-04-29 23:20 21.78002 114.13798 9625 ft 288 kts 50°
2026-04-29 23:20 21.79195 114.15475 9558 ft 276 kts 50°
2026-04-29 23:20 21.80343 114.17088 9451 ft 266 kts 50°
2026-04-29 23:20 21.81451 114.18644 9355 ft 256 kts 50°
2026-04-29 23:21 21.82514 114.20138 9268 ft 247 kts 50°
2026-04-29 23:21 21.83543 114.21583 9103 ft 241 kts 49°
2026-04-29 23:21 21.84550 114.22998 8958 ft 234 kts 49°
2026-04-29 23:21 21.85536 114.24383 8836 ft 232 kts 50°
2026-04-29 23:22 21.86516 114.25759 8781 ft 231 kts 50°
2026-04-29 23:22 21.87476 114.27109 8665 ft 228 kts 50°
2026-04-29 23:22 21.88435 114.28457 8552 ft 225 kts 50°
2026-04-29 23:22 21.89383 114.29791 8439 ft 223 kts 50°
2026-04-29 23:23 21.90325 114.31116 8343 ft 222 kts 50°
2026-04-29 23:23 21.91270 114.32447 8254 ft 224 kts 50°
2026-04-29 23:23 21.92218 114.33780 8157 ft 225 kts 50°
2026-04-29 23:23 21.93168 114.35119 8068 ft 225 kts 50°
2026-04-29 23:24 21.94108 114.36444 7984 ft 219 kts 50°
2026-04-29 23:24 21.94712 114.37296 7902 ft 213 kts 50°
2026-04-29 23:24 21.95602 114.38552 7810 ft 209 kts 50°
2026-04-29 23:24 21.96484 114.39795 7717 ft 208 kts 50°
2026-04-29 23:25 21.97365 114.41037 7639 ft 209 kts 50°
2026-04-29 23:25 21.98250 114.42285 7564 ft 209 kts 49°
2026-04-29 23:25 21.99128 114.43523 7474 ft 210 kts 50°
2026-04-29 23:25 22.00018 114.44779 7378 ft 211 kts 50°
2026-04-29 23:26 22.00904 114.46030 7310 ft 210 kts 49°
2026-04-29 23:26 22.01789 114.47279 7214 ft 209 kts 50°
2026-04-29 23:26 22.02677 114.48527 7109 ft 208 kts 47°
2026-04-29 23:26 22.03827 114.49375 6980 ft 197 kts
2026-04-29 23:27 22.05086 114.49127 6814 ft 182 kts 320°
2026-04-29 23:27 22.06107 114.48323 6638 ft 184 kts 318°
2026-04-29 23:27 22.07138 114.47493 6476 ft 184 kts 320°
2026-04-29 23:27 22.08158 114.46702 6248 ft 182 kts 318°
2026-04-29 23:28 22.09086 114.45802 6016 ft 178 kts 310°
2026-04-29 23:28 22.09936 114.44851 5797 ft 173 kts 309°
2026-04-29 23:28 22.10759 114.43914 5573 ft 172 kts 310°
2026-04-29 23:28 22.11595 114.42961 5341 ft 177 kts 310°
2026-04-29 23:29 22.12441 114.42000 5118 ft 175 kts 310°
2026-04-29 23:29 22.13277 114.41052 4882 ft 173 kts 310°
2026-04-29 23:29 22.14093 114.40125 4637 ft 168 kts 310°
2026-04-29 23:29 22.14894 114.39215 4440 ft 171 kts 310°
2026-04-29 23:30 22.15724 114.38273 4195 ft 170 kts 311°
2026-04-29 23:30 22.16514 114.37377 3961 ft 158 kts 312°
2026-04-29 23:30 22.17245 114.36548 3793 ft 149 kts 313°
2026-04-29 23:30 22.17966 114.35729 3587 ft 151 kts 314°
2026-04-29 23:31 22.18702 114.34895 3388 ft 156 kts 314°
2026-04-29 23:31 22.19448 114.34047 3172 ft 155 kts 316°
2026-04-29 23:31 22.20176 114.33221 2974 ft 148 kts 316°
2026-04-29 23:31 22.20851 114.32454 2788 ft 139 kts 316°
2026-04-29 23:32 22.21513 114.31702 2601 ft 137 kts 319°
2026-04-29 23:32 22.22176 114.30955 2412 ft 140 kts 317°
2026-04-29 23:32 22.22850 114.30189 2229 ft 142 kts 319°
2026-04-29 23:32 22.23534 114.29412 2044 ft 142 kts 318°
2026-04-29 23:33 22.24205 114.28649 1847 ft 138 kts 320°
2026-04-29 23:33 22.24855 114.27916 1670 ft 133 kts 321°
2026-04-29 23:33 22.25513 114.27159 1455 ft 140 kts 319°
2026-04-29 23:33 22.26146 114.26368 1183 ft 137 kts 319°
2026-04-29 23:34 22.26790 114.25642 981 ft 133 kts 320°
2026-04-29 23:34 22.27450 114.24934 803 ft 134 kts 319°
2026-04-29 23:34 22.28106 114.24202 653 ft 136 kts 316°
2026-04-29 23:34 22.28767 114.23481 505 ft 133 kts 317°
2026-04-29 23:35 22.29376 114.22764 350 ft 129 kts 317°
2026-04-29 23:35 22.29994 114.22069 227 ft 130 kts 318°
2026-04-29 23:35 22.30645 114.21360 94 ft 131 kts 317°
2026-04-29 23:35 22.31240 114.20710 38 ft 110 kts 315°
2026-04-29 23:36 22.31642 114.20249 36 ft 53 kts 315°
2026-04-29 23:36 22.31841 114.20033 37 ft 24 kts 322°
2026-04-29 23:36 22.31969 114.19971 37 ft 15 kts 342°
2026-04-29 23:36 22.32066 114.19937 37 ft 14 kts 342°
2026-04-29 23:37 22.32155 114.19915 37 ft 12 kts 352°
2026-04-29 23:37 22.32235 114.19916 37 ft 11 kts
2026-04-29 23:37 22.32317 114.19938 36 ft 13 kts 33°
2026-04-29 23:37 22.32314 114.20010 36 ft 10 kts 124°
2026-04-29 23:38 22.32258 114.20091 36 ft 18 kts 127°
2026-04-29 23:38 22.32170 114.20198 37 ft 20 kts 133°
2026-04-29 23:38 22.32109 114.20276 37 ft 2 kts 74°
2026-04-29 23:38 22.32131 114.20305 36 ft 8 kts 46°
2026-04-29 23:39 22.32147 114.20322 37 ft 1 kts 44°
2026-04-29 23:39 22.32152 114.20328 37 ft 0 kts 44°